Terminal Aerodrome Forecast
Issued by NWS Greer, SC

Home | Current Version | Previous Version | Text Only | Print | Product List | Glossary On
Versions: 1 2 3 4 5 6 7 8 9 10 11 12 13 14 15 16 17 18 19 20 21 22 23 24 25 26 27 28
000
FTUS42 KGSP 241126
TAFAVL
TAF
KAVL 241126Z 2412/2512 14003KT P6SM FEW250
     FM241600 17007KT P6SM FEW250
     FM250600 16005KT P6SM SCT050
     FM250800 16005KT P6SM BKN020
     FM250900 17005KT P6SM BKN015=

USA.gov is the U.S. government's official web portal to all federal, state and local government web resources and services.